Location: Newark
(42.4678°N, 122.8017°W)
Time: 22:40:26
(UTC+00:00)

N. Korean satellite - Pass Details

Date: 02 October 2020
Orbit: 452 x 505 km, 97.2° (Epoch: 28 October)

Event Time Altitude Azimuth Distance (km) Brightness Sun altitude
Rises 13:14:59 0° 21° (NNE) 2,564 10.6 -11.0°
Reaches altitude 10° 13:17:13 10° 31° (NNE) 1,668 9.8 -10.6°
Maximum altitude 13:20:30 33° 97° (E) 819 8.5 -10.0°
Drops below altitude 10° 13:23:41 10° 163° (SSE) 1,627 9.4 -9.4°
Sets 13:25:50 0° 173° (S) 2,488 10.2 -9.0°
